Location: Costa Mesa
(33.6411°N, 117.9187°W)
Time: 03:03:43
(UTC+00:00)

NOSS 3-2 (A) - Pass Details

Date: 10 September 2024
Orbit: 700 x 1505 km, 63.4° (Epoch: 09 October)

Event Time Altitude Azimuth Distance (km) Brightness Sun altitude
Exits shadow 12:54:54 10° 260° (W) 2,222 4.7 -8.5°
Maximum altitude 12:58:55 24° 314° (NW) 1,599 4.4 -7.7°
Drops below altitude 10° 13:03:33 10° 7° (N) 2,548 5.9 -6.7°
Sets 13:06:47 0° 21° (NNE) 3,633 6.9 -6.1°
